This demonstration page uses our WeatherBlox Daily Observations layout. Learn more.

Left ArrowRight Arrow

Hourly Observations for May 2, 2015

Temp ( °F °C ) Dew Point ( °F °C ) Humidity (%) Winds ( mph kmh ) Pressure ( in mb ) Visibility ( mi km ) Precip ( " mm )
12:58 am 00:58 Clear 50 10 43 6.2 77 77 E 5 7 30.01 1016 10 16 0.00 0.00
1:58 am 01:58 Clear 58 14.4 43 6.1 58 58 ESE 5 7 30.00 1016 10 16 0.00 0.00
2:58 am 02:58 Partly Cloudy 58 14.5 44 6.6 59 59 E 7 11 29.98 1015 10 16 0.00 0.00
3:58 am 03:58 Mostly Clear 53 11.6 44 6.5 71 71 ESE 5 7 29.98 1015 10 16 0.00 0.00
4:58 am 04:58 Mostly Cloudy 56 13.2 46 7.8 70 70 VRB 5 7 29.97 1015 10 16 0.00 0.00
5:58 am 05:58 Mostly Cloudy 56 13.1 47 8.4 73 73 ESE 6 9 29.95 1014 10 16 0.00 0.00
6:07 am 06:07 Mostly Cloudy with Light Rain 57 14 48 9 72 72 ESE 2 4 29.94 1014 10 16 0.00 0.00
6:34 am 06:34 Mostly Sunny 57 14 52 11 82 82 SSE 5 7 29.94 1014 10 16 0.00 0.00
6:38 am 06:38 Partly Cloudy with Drizzle 59 15 52 11 77 77 S 6 9 29.91 1013 10 16 0.00 0.00
6:41 am 06:41 Mostly Sunny 59 15 54 12 82 82 S 9 15 29.88 1012 10 16 0.00 0.00
6:55 am 06:55 Partly Cloudy with Light Rain 63 17 55 13 77 77 SW 2 4 29.88 1012 10 16 0.00 0.00
6:58 am 06:58 Partly Cloudy with Light Rain 63 17.1 56 13.1 77 77 VRB 2 4 29.93 1014 10 16 0.00 0.03
7:07 am 07:07 Partly Cloudy with Light Rain 63 17 55 13 77 77 VRB 6 9 29.91 1013 10 16 0.00 0.00
7:26 am 07:26 Partly Cloudy 63 17 55 13 77 77 S 8 13 29.91 1013 10 16 0.00 0.00
7:50 am 07:50 Cloudy with Light Rain 63 17 54 12 73 73 SE 9 15 29.91 1013 10 16 0.00 0.00
7:58 am 07:58 Cloudy with Light Rain 62 16.8 55 12.7 77 77 SSE 8 13 29.93 1014 6 10 0.04 1.02
8:05 am 08:05 Cloudy with Thunderstorms 61 16 55 13 83 83 SSE 6 9 29.91 1013 10 16 0.00 0.00
8:10 am 08:10 Cloudy with Thunderstorms 61 16 54 12 77 77 VRB 1 2 29.91 1013 10 16 0.00 0.00
8:26 am 08:26 Mostly Cloudy with Light Rain and Scattered Storms 59 15 55 13 88 88 N 10 17 29.97 1015 9 14 0.00 0.00
8:58 am 08:58 Cloudy with Rain and Nearby Thunderstorms 59 15 56 13.4 90 90 E 8 13 29.98 1015 4 6 0.08 2.03
9:09 am 09:09 Cloudy 59 15 55 13 88 88 E 12 19 29.97 1015 10 16 0.00 0.00
9:27 am 09:27 Cloudy with Light Rain 57 14 54 12 88 88 ESE 16 26 29.97 1015 9 14 0.00 0.00
9:47 am 09:47 Cloudy with Light Rain 57 14 54 12 88 88 SE 15 24 29.97 1015 10 16 0.00 0.00
9:58 am 09:58 Cloudy with Light Rain 58 14.4 55 12.8 90 90 SE 13 20 29.98 1015 10 16 0.05 1.27
10:02 am 10:02 Mostly Cloudy with Light Rain 59 15 55 13 88 88 SE 13 20 29.97 1015 10 16 0.00 0.00
10:40 am 10:40 Mostly Cloudy 59 15 54 12 82 82 SE 16 26 29.97 1015 10 16 0.00 0.00
10:58 am 10:58 Mostly Sunny 60 15.5 53 11.8 79 79 SSE 18 30 29.96 1015 10 16 0.00 0.03
11:58 am 11:58 Mostly Sunny 62 16.9 55 12.6 76 76 SE 21 33 29.96 1015 10 16 0.00 0.00
12:58 pm 12:58 Mostly Cloudy 65 18.6 55 13 70 70 SE 16 26 29.94 1014 10 16 0.00 0.00
1:58 pm 13:58 Mostly Sunny 68 20 56 13.3 65 65 SE 17 28 29.90 1013 10 16 0.00 0.00
2:58 pm 14:58 Sunny 69 20.4 56 13.1 63 63 SE 18 30 29.87 1012 10 16 0.00 0.00
3:58 pm 15:58 Sunny 70 21.1 56 13.1 60 60 SSE 14 22 29.84 1011 10 16 0.00 0.00
4:58 pm 16:58 Sunny 71 21.6 56 13.5 60 60 SE 15 24 29.82 1010 10 16 0.00 0.00
5:58 pm 17:58 Sunny 71 21.7 57 14.1 62 62 SSE 17 28 29.80 1009 10 16 0.00 0.00
6:58 pm 18:58 Sunny 72 22 58 14.5 63 63 ESE 14 22 29.78 1008 10 16 0.00 0.00
7:58 pm 19:58 Sunny 67 19.7 58 14.3 71 71 ESE 14 22 29.77 1008 10 16 0.00 0.00
8:58 pm 20:58 Clear 67 19.3 58 14.4 73 73 SE 12 19 29.76 1008 10 16 0.00 0.00
9:58 pm 21:58 Clear 67 19.4 56 13.4 68 68 SSE 18 30 29.77 1008 10 16 0.00 0.00
10:32 pm 22:32 Cloudy with Light Rain 68 20 54 12 60 60 SSE 15 24 29.77 1008 10 16 0.00 0.00
10:46 pm 22:46 Cloudy 70 21 54 12 57 57 SSE 18 30 29.77 1008 10 16 0.00 0.00
10:58 pm 22:58 Cloudy 69 20.4 54 12.1 59 59 SSE 18 30 29.78 1008 10 16 0.00 0.03
11:23 pm 23:23 Cloudy with Thunderstorms 68 20 54 12 60 60 SSE 8 13 29.77 1008 10 16 0.00 0.00
11:58 pm 23:58 Cloudy with Thunderstorms 66 18.8 56 13.6 72 72 WNW 12 19 29.83 1010 10 16 0.01 0.25

Powered by AerisWeather